Location: Caualo
(45.5667°N, 10.8667°E)
Time: 00:26:41
(UTC+00:00)

In-Cosmos 22 Rocket - Pass Details

Date: 01 October 2020
Orbit: 790 x 889 km, 81.2° (Epoch: 27 October)

Event Time Altitude Azimuth Distance (km) Brightness Sun altitude
Rises 21:20:14 0° 345° (NNW) 3,334 8.0 -42.1°
Reaches altitude 10° 21:22:40 10° 342° (NNW) 2,388 7.1 -42.4°
Enters shadow 21:23:36 15° 340° (NNW) 2,035 6.7 -42.5°
